Regional Weather Roundup
Issued by NWS

Home | Current Version | Previous Version | Graphics & Text | Print | Product List | Glossary Off
Versions: 1 2 3 4 5 6 7 8 9 10 11 12 13 14 15 16 17 18 19 20 21 22 23 24 25 26 27 28 29 30 31 32 33 34 35 36 37 38 39 40 41 42 43 44 45 46 47 48 49 50

000
ASUS45 KABQ 070610
RWRNM
WEATHER ROUNDUP FOR NEW MEXICO
NATIONAL WEATHER SERVICE ALBUQUERQUE NM
1200 AM MDT THU MAY 07 2015

NOTE: "FAIR" MEANS FEW OR NO CLOUDS BELOW 12,000 FEET AGL WITH NO
       SIGNIFICANT WEATHER OR OBSTRUCTIONS TO VISION.

      THIS PRODUCT IS RELEASED AS TWO VERSIONS.  ONE VERSION NEAR
      THE TOP OF THE HOUR CONTAINING PRELIMINARY DATA FROM ALBUQUERQUE
      AND OTHER STATIONS.  A FINAL VERSION WITH ADDITIONAL DATA IS
      ISSUED ABOUT 10 MINUTES AFTER THE HOUR.

NMZ501-503-504-510>518-070700-
NORTHWEST PLATEAU/NORTHCENTRAL MOUNTAINS

CITY           SKY/WX    TMP DP  RH WIND       PRES   REMARKS
FARMINGTON     PTCLDY    50  43  77 NE6       29.89S
6HR MIN TEMP:  50; 6HR MAX TEMP:  63; 6HR PCP:  0.05;

LOS ALAMOS     MOCLDY    49  36  58 CALM      29.98F
SANTA FE       MOCLDY    49  38  65 NE9       29.93F
6HR MIN TEMP:  47; 6HR MAX TEMP:  62; 6HR PCP: TRACE;

TAOS           CLOUDY    43  36  75 CALM      29.99S
ANGEL FIRE     FAIR      38  35  89 S6        30.04R WCI  34

$$
NMZ402-403-502-505>509-070700-
WESTCENTRAL MOUNTAINS/SOUTHWEST MOUNTAINS

CITY           SKY/WX    TMP DP  RH WIND       PRES   REMARKS
GALLUP         CLEAR     46  33  60 CALM      29.94S
6HR MIN TEMP:  46; 6HR MAX TEMP:  63;

GRANTS         CLEAR     37  33  85 NW5       29.98S WCI  33
SILVER CITY      N/A     57  16  19 W10       29.94S

$$
NMZ407-409-411-412-070700-
SOUTHERN DESERTS

CITY           SKY/WX    TMP DP  RH WIND       PRES   REMARKS
LORDSBURG      FAIR      63  21  20 W10       29.89R
DEMING         CLEAR     63  16  16 W13       29.88R
6HR MIN TEMP:  63; 6HR MAX TEMP:  79;

LAS CRUCES     CLEAR     59  15  18 W12       29.88S
HOLLOMAN AFB   PTCLDY    59  32  36 E7        29.83S
ALAMOGORDO     PTCLDY    57  28  33 E5        29.85S
T OR C         CLEAR     58  18  21 W8        29.86S
6HR MIN TEMP:  58; 6HR MAX TEMP:  77;


$$
NMZ519>523-070700-
CENTRAL VALLEYS/CENTRAL HIGHLANDS

CITY           SKY/WX    TMP DP  RH WIND       PRES   REMARKS
ALBUQUERQUE    MOCLDY    57  44  62 SE3       29.91S
6HR MIN TEMP:  56; 6HR MAX TEMP:  69; 6HR PCP: TRACE;

DOUBLE EAGLE   MOCLDY    52  39  61 W3        29.93S
MORIARTY ARPT  FAIR      47  38  71 E5        29.95R
6HR MIN TEMP:  47; 6HR MAX TEMP:  66;

CLINES CORNERS PTCLDY    46  34  62 NW9       29.95S
6HR MIN TEMP:  45; 6HR MAX TEMP:  63;

BELEN          FAIR      52  38  58 CALM      29.91R
6HR MIN TEMP:  51; 6HR MAX TEMP:  72;

SOCORRO        FAIR      58  40  50 NW9       29.88S
6HR MIN TEMP:  58; 6HR MAX TEMP:  76;


$$
NMZ524>526-539-540-070700-
SOUTHCENTRAL MOUNTAINS

CITY           SKY/WX    TMP DP  RH WIND       PRES   REMARKS
RUIDOSO        CLEAR     54  19  26 NE5       29.99S

$$
NMZ527>531-070700-
NORTHEAST HIGHLANDS/NORTHEAST PLAINS

CITY           SKY/WX    TMP DP  RH WIND       PRES   REMARKS
LAS VEGAS      PTCLDY    51  32  48 W6        29.93F
6HR MIN TEMP:  46; 6HR MAX TEMP:  63;

RATON          CLOUDY    51  40  65 CALM      29.89F
6HR MIN TEMP:  51; 6HR MAX TEMP:  67;

CLAYTON        PTCLDY    56  41  57 W12       29.83R
6HR MIN TEMP:  54; 6HR MAX TEMP:  76;


$$
NMZ532>537-070700-
EASTCENTRAL PLAINS

CITY           SKY/WX    TMP DP  RH WIND       PRES   REMARKS
TUCUMCARI      CLEAR     57  45  64 CALM      29.80R
6HR MIN TEMP:  55; 6HR MAX TEMP:  76;

CANNON AFB     CLEAR     59  43  56 SW7       29.83S
6HR MIN TEMP:  57; 6HR MAX TEMP:  75; 6HR PCP: TRACE;

CLOVIS AIRPORT CLEAR     57  43  58 S13       29.84R

$$
NMZ028-029-538-070700-
SOUTHEAST PLAINS

CITY           SKY/WX    TMP DP  RH WIND       PRES   REMARKS
ROSWELL        CLEAR     56  46  69 SW6       29.79S
6HR MIN TEMP:  55; 6HR MAX TEMP:  81;

ARTESIA        PTCLDY    66  48  52 S9        29.83S
CARLSBAD       MOCLDY    70  61  73 S14       29.82R
6HR MIN TEMP:  62; 6HR MAX TEMP:  85;

HOBBS          CLEAR     64  64 100 S8        29.85S


$$


USA.gov is the U.S. government's official web portal to all federal, state and local government web resources and services.